owner,sensor,date,latitude,longitude,vertical_datum,sea_water_temperature,qcFlag 
WAVCIS,ioos:station:WAVCIS:CSI16:2,2011-11-01T00:00:00Z,29.4012,-89.0355,10.0,21.239,11111222 
WAVCIS,ioos:station:WAVCIS:CSI16:2,2011-11-01T00:15:00Z,29.4012,-89.0355,10.0,21.257,11111222 
WAVCIS,ioos:station:WAVCIS:CSI16:2,2011-11-01T00:30:00Z,29.4012,-89.0355,10.0,21.33,11111222 
WAVCIS,ioos:station:WAVCIS:CSI16:2,2011-11-01T00:45:00Z,29.4012,-89.0355,10.0,21.369,11111222 
WAVCIS,ioos:station:WAVCIS:CSI16:2,2011-11-01T01:00:00Z,29.4012,-89.0355,10.0,21.378,11111222 
WAVCIS,ioos:station:WAVCIS:CSI16:2,2011-11-01T01:15:00Z,29.4012,-89.0355,10.0,21.404,11111222 
WAVCIS,ioos:station:WAVCIS:CSI16:2,2011-11-01T01:30:00Z,29.4012,-89.0355,10.0,21.433,11111222 
WAVCIS,ioos:station:WAVCIS:CSI16:2,2011-11-01T01:45:00Z,29.4012,-89.0355,10.0,21.454,11111222 
WAVCIS,ioos:station:WAVCIS:CSI16:2,2011-11-01T02:00:00Z,29.4012,-89.0355,10.0,21.466,11111222 
WAVCIS,ioos:station:WAVCIS:CSI16:2,2011-11-01T02:15:00Z,29.4012,-89.0355,10.0,21.496,11111222 
WAVCIS,ioos:station:WAVCIS:CSI16:2,2011-11-01T02:30:00Z,29.4012,-89.0355,10.0,21.503,11111222 
WAVCIS,ioos:station:WAVCIS:CSI16:2,2011-11-01T02:45:00Z,29.4012,-89.0355,10.0,21.51,11111222 
WAVCIS,ioos:station:WAVCIS:CSI16:2,2011-11-01T03:00:00Z,29.4012,-89.0355,10.0,21.511,11111222 
WAVCIS,ioos:station:WAVCIS:CSI16:2,2011-11-01T03:15:00Z,29.4012,-89.0355,10.0,21.51,11111222 
WAVCIS,ioos:station:WAVCIS:CSI16:2,2011-11-01T03:30:00Z,29.4012,-89.0355,10.0,21.521,11111222 
WAVCIS,ioos:station:WAVCIS:CSI16:2,2011-11-01T03:45:00Z,29.4012,-89.0355,10.0,21.52,11111222 
WAVCIS,ioos:station:WAVCIS:CSI16:2,2011-11-01T04:00:00Z,29.4012,-89.0355,10.0,21.517,11111222 
WAVCIS,ioos:station:WAVCIS:CSI16:2,2011-11-01T04:15:00Z,29.4012,-89.0355,10.0,21.525,11111222 
WAVCIS,ioos:station:WAVCIS:CSI16:2,2011-11-01T04:30:00Z,29.4012,-89.0355,10.0,21.531,11111222 
WAVCIS,ioos:station:WAVCIS:CSI16:2,2011-11-01T04:45:00Z,29.4012,-89.0355,10.0,21.528,11111222 
WAVCIS,ioos:station:WAVCIS:CSI16:2,2011-11-01T05:00:00Z,29.4012,-89.0355,10.0,21.55,11111222 
WAVCIS,ioos:station:WAVCIS:CSI16:2,2011-11-01T05:15:00Z,29.4012,-89.0355,10.0,21.57,11111222 
WAVCIS,ioos:station:WAVCIS:CSI16:2,2011-11-01T05:30:00Z,29.4012,-89.0355,10.0,21.563,11111222 
WAVCIS,ioos:station:WAVCIS:CSI16:2,2011-11-01T05:45:00Z,29.4012,-89.0355,10.0,21.56,11111222 
WAVCIS,ioos:station:WAVCIS:CSI16:2,2011-11-01T06:00:00Z,29.4012,-89.0355,10.0,21.554,11111222 
WAVCIS,ioos:station:WAVCIS:CSI16:2,2011-11-01T06:15:00Z,29.4012,-89.0355,10.0,21.538,11111222 
WAVCIS,ioos:station:WAVCIS:CSI16:2,2011-11-01T06:30:00Z,29.4012,-89.0355,10.0,21.54,11111222 
WAVCIS,ioos:station:WAVCIS:CSI16:2,2011-11-01T06:45:00Z,29.4012,-89.0355,10.0,21.557,11111222 
WAVCIS,ioos:station:WAVCIS:CSI16:2,2011-11-01T07:00:00Z,29.4012,-89.0355,10.0,21.576,11111222 
WAVCIS,ioos:station:WAVCIS:CSI16:2,2011-11-01T07:15:00Z,29.4012,-89.0355,10.0,21.594,11111222 
WAVCIS,ioos:station:WAVCIS:CSI16:2,2011-11-01T07:30:00Z,29.4012,-89.0355,10.0,21.6,11111222 
WAVCIS,ioos:station:WAVCIS:CSI16:2,2011-11-01T07:45:00Z,29.4012,-89.0355,10.0,21.602,11111222 
WAVCIS,ioos:station:WAVCIS:CSI16:2,2011-11-01T08:00:00Z,29.4012,-89.0355,10.0,21.582,11111222 
WAVCIS,ioos:station:WAVCIS:CSI16:2,2011-11-01T08:15:00Z,29.4012,-89.0355,10.0,21.545,11111222 
WAVCIS,ioos:station:WAVCIS:CSI16:2,2011-11-01T08:30:00Z,29.4012,-89.0355,10.0,21.507,11111222 
WAVCIS,ioos:station:WAVCIS:CSI16:2,2011-11-01T08:45:00Z,29.4012,-89.0355,10.0,21.489,11111222 
WAVCIS,ioos:station:WAVCIS:CSI16:2,2011-11-01T09:00:00Z,29.4012,-89.0355,10.0,21.512,11111222 
WAVCIS,ioos:station:WAVCIS:CSI16:2,2011-11-01T09:15:00Z,29.4012,-89.0355,10.0,21.5,11111222 
WAVCIS,ioos:station:WAVCIS:CSI16:2,2011-11-01T09:30:00Z,29.4012,-89.0355,10.0,21.47,11111222 
WAVCIS,ioos:station:WAVCIS:CSI16:2,2011-11-01T09:45:00Z,29.4012,-89.0355,10.0,21.422,11111222 
WAVCIS,ioos:station:WAVCIS:CSI16:2,2011-11-01T10:00:00Z,29.4012,-89.0355,10.0,21.427,11111222 
WAVCIS,ioos:station:WAVCIS:CSI16:2,2011-11-01T10:15:00Z,29.4012,-89.0355,10.0,21.365,11111222 
WAVCIS,ioos:station:WAVCIS:CSI16:2,2011-11-01T10:30:00Z,29.4012,-89.0355,10.0,21.347,11111222 
WAVCIS,ioos:station:WAVCIS:CSI16:2,2011-11-01T10:45:00Z,29.4012,-89.0355,10.0,21.319,11111222 
WAVCIS,ioos:station:WAVCIS:CSI16:2,2011-11-01T11:00:00Z,29.4012,-89.0355,10.0,21.28,11111222 
WAVCIS,ioos:station:WAVCIS:CSI16:2,2011-11-01T11:15:00Z,29.4012,-89.0355,10.0,21.266,11111222 
WAVCIS,ioos:station:WAVCIS:CSI16:2,2011-11-01T11:30:00Z,29.4012,-89.0355,10.0,21.247,11111222 
WAVCIS,ioos:station:WAVCIS:CSI16:2,2011-11-01T11:45:00Z,29.4012,-89.0355,10.0,21.243,11111222 
WAVCIS,ioos:station:WAVCIS:CSI16:2,2011-11-01T12:00:00Z,29.4012,-89.0355,10.0,21.228,11111222 
WAVCIS,ioos:station:WAVCIS:CSI16:2,2011-11-01T12:15:00Z,29.4012,-89.0355,10.0,21.216,11111222 
WAVCIS,ioos:station:WAVCIS:CSI16:2,2011-11-01T12:30:00Z,29.4012,-89.0355,10.0,21.19,11111222 
WAVCIS,ioos:station:WAVCIS:CSI16:2,2011-11-01T12:45:00Z,29.4012,-89.0355,10.0,21.174,11111222 
WAVCIS,ioos:station:WAVCIS:CSI16:2,2011-11-01T13:00:00Z,29.4012,-89.0355,10.0,21.139,11111222 
WAVCIS,ioos:station:WAVCIS:CSI16:2,2011-11-01T13:15:00Z,29.4012,-89.0355,10.0,21.101,11111222 
WAVCIS,ioos:station:WAVCIS:CSI16:2,2011-11-01T13:30:00Z,29.4012,-89.0355,10.0,21.074,11111222 
WAVCIS,ioos:station:WAVCIS:CSI16:2,2011-11-01T13:45:00Z,29.4012,-89.0355,10.0,21.057,11111222 
WAVCIS,ioos:station:WAVCIS:CSI16:2,2011-11-01T14:00:00Z,29.4012,-89.0355,10.0,21.021,11111222 
WAVCIS,ioos:station:WAVCIS:CSI16:2,2011-11-01T14:15:00Z,29.4012,-89.0355,10.0,20.951,11111222 
WAVCIS,ioos:station:WAVCIS:CSI16:2,2011-11-01T14:30:00Z,29.4012,-89.0355,10.0,20.803,11111222 
WAVCIS,ioos:station:WAVCIS:CSI16:2,2011-11-01T14:45:00Z,29.4012,-89.0355,10.0,20.588,11111222 
WAVCIS,ioos:station:WAVCIS:CSI16:2,2011-11-01T15:00:00Z,29.4012,-89.0355,10.0,20.48,11111222 
WAVCIS,ioos:station:WAVCIS:CSI16:2,2011-11-01T15:15:00Z,29.4012,-89.0355,10.0,20.355,11111222 
WAVCIS,ioos:station:WAVCIS:CSI16:2,2011-11-01T15:30:00Z,29.4012,-89.0355,10.0,20.187,11111222 
WAVCIS,ioos:station:WAVCIS:CSI16:2,2011-11-01T15:45:00Z,29.4012,-89.0355,10.0,20.106,11111222 
WAVCIS,ioos:station:WAVCIS:CSI16:2,2011-11-01T16:00:00Z,29.4012,-89.0355,10.0,20.056,11111222 
WAVCIS,ioos:station:WAVCIS:CSI16:2,2011-11-01T16:15:00Z,29.4012,-89.0355,10.0,20.08,11111222 
WAVCIS,ioos:station:WAVCIS:CSI16:2,2011-11-01T16:30:00Z,29.4012,-89.0355,10.0,20.079,11111222 
WAVCIS,ioos:station:WAVCIS:CSI16:2,2011-11-01T16:45:00Z,29.4012,-89.0355,10.0,20.068,11111222 
WAVCIS,ioos:station:WAVCIS:CSI16:2,2011-11-01T17:00:00Z,29.4012,-89.0355,10.0,20.067,11111222 
WAVCIS,ioos:station:WAVCIS:CSI16:2,2011-11-01T17:15:00Z,29.4012,-89.0355,10.0,20.059,11111222 
WAVCIS,ioos:station:WAVCIS:CSI16:2,2011-11-01T17:30:00Z,29.4012,-89.0355,10.0,20.036,11111222 
WAVCIS,ioos:station:WAVCIS:CSI16:2,2011-11-01T17:45:00Z,29.4012,-89.0355,10.0,20.042,11111222 
WAVCIS,ioos:station:WAVCIS:CSI16:2,2011-11-01T18:00:00Z,29.4012,-89.0355,10.0,20.042,11111222 
WAVCIS,ioos:station:WAVCIS:CSI16:2,2011-11-01T18:15:00Z,29.4012,-89.0355,10.0,20.063,11111222 
WAVCIS,ioos:station:WAVCIS:CSI16:2,2011-11-01T18:30:00Z,29.4012,-89.0355,10.0,20.085,11111222 
WAVCIS,ioos:station:WAVCIS:CSI16:2,2011-11-01T18:45:00Z,29.4012,-89.0355,10.0,20.177,11111222 
WAVCIS,ioos:station:WAVCIS:CSI16:2,2011-11-01T19:00:00Z,29.4012,-89.0355,10.0,20.281,11111222 
WAVCIS,ioos:station:WAVCIS:CSI16:2,2011-11-01T19:15:00Z,29.4012,-89.0355,10.0,20.446,11111222 
WAVCIS,ioos:station:WAVCIS:CSI16:2,2011-11-01T19:30:00Z,29.4012,-89.0355,10.0,20.479,11111222 
WAVCIS,ioos:station:WAVCIS:CSI16:2,2011-11-01T19:45:00Z,29.4012,-89.0355,10.0,20.613,11111222 
WAVCIS,ioos:station:WAVCIS:CSI16:2,2011-11-01T20:00:00Z,29.4012,-89.0355,10.0,20.671,11111222 
WAVCIS,ioos:station:WAVCIS:CSI16:2,2011-11-01T20:15:00Z,29.4012,-89.0355,10.0,20.816,11111222 
WAVCIS,ioos:station:WAVCIS:CSI16:2,2011-11-01T20:30:00Z,29.4012,-89.0355,10.0,20.839,11111222 
WAVCIS,ioos:station:WAVCIS:CSI16:2,2011-11-01T20:45:00Z,29.4012,-89.0355,10.0,20.942,11111222 
WAVCIS,ioos:station:WAVCIS:CSI16:2,2011-11-01T21:00:00Z,29.4012,-89.0355,10.0,20.966,11111222 
WAVCIS,ioos:station:WAVCIS:CSI16:2,2011-11-01T21:15:00Z,29.4012,-89.0355,10.0,20.993,11111222 
WAVCIS,ioos:station:WAVCIS:CSI16:2,2011-11-01T21:30:00Z,29.4012,-89.0355,10.0,21.032,11111222 
WAVCIS,ioos:station:WAVCIS:CSI16:2,2011-11-01T21:45:00Z,29.4012,-89.0355,10.0,21.049,11111222 
WAVCIS,ioos:station:WAVCIS:CSI16:2,2011-11-01T22:00:00Z,29.4012,-89.0355,10.0,21.08,11111222 
WAVCIS,ioos:station:WAVCIS:CSI16:2,2011-11-01T22:15:00Z,29.4012,-89.0355,10.0,21.1,11111222 
WAVCIS,ioos:station:WAVCIS:CSI16:2,2011-11-01T22:30:00Z,29.4012,-89.0355,10.0,21.115,11111222 
WAVCIS,ioos:station:WAVCIS:CSI16:2,2011-11-01T22:45:00Z,29.4012,-89.0355,10.0,21.132,11111222 
WAVCIS,ioos:station:WAVCIS:CSI16:2,2011-11-01T23:00:00Z,29.4012,-89.0355,10.0,21.139,11111222 
WAVCIS,ioos:station:WAVCIS:CSI16:2,2011-11-01T23:15:00Z,29.4012,-89.0355,10.0,21.151,11111222 
WAVCIS,ioos:station:WAVCIS:CSI16:2,2011-11-01T23:30:00Z,29.4012,-89.0355,10.0,21.154,11111222 
WAVCIS,ioos:station:WAVCIS:CSI16:2,2011-11-01T23:45:00Z,29.4012,-89.0355,10.0,21.17,11111222 
WAVCIS,ioos:station:WAVCIS:CSI16:2,2011-11-02T00:00:00Z,29.4012,-89.0355,10.0,21.195,11111222 
WAVCIS,ioos:station:WAVCIS:CSI16:2,2011-11-02T00:15:00Z,29.4012,-89.0355,10.0,21.213,11111222 
WAVCIS,ioos:station:WAVCIS:CSI16:2,2011-11-02T00:30:00Z,29.4012,-89.0355,10.0,21.228,11111222 
WAVCIS,ioos:station:WAVCIS:CSI16:2,2011-11-02T00:45:00Z,29.4012,-89.0355,10.0,21.24,11111222 
WAVCIS,ioos:station:WAVCIS:CSI16:2,2011-11-02T01:00:00Z,29.4012,-89.0355,10.0,21.252,11111222 
WAVCIS,ioos:station:WAVCIS:CSI16:2,2011-11-02T01:15:00Z,29.4012,-89.0355,10.0,21.264,11111222 
WAVCIS,ioos:station:WAVCIS:CSI16:2,2011-11-02T01:30:00Z,29.4012,-89.0355,10.0,21.288,11111222 
WAVCIS,ioos:station:WAVCIS:CSI16:2,2011-11-02T01:45:00Z,29.4012,-89.0355,10.0,21.311,11111222 
WAVCIS,ioos:station:WAVCIS:CSI16:2,2011-11-02T02:00:00Z,29.4012,-89.0355,10.0,21.332,11111222 
WAVCIS,ioos:station:WAVCIS:CSI16:2,2011-11-02T02:15:00Z,29.4012,-89.0355,10.0,21.34,11111222 
WAVCIS,ioos:station:WAVCIS:CSI16:2,2011-11-02T02:30:00Z,29.4012,-89.0355,10.0,21.355,11111222 
WAVCIS,ioos:station:WAVCIS:CSI16:2,2011-11-02T02:45:00Z,29.4012,-89.0355,10.0,21.375,11111222 
WAVCIS,ioos:station:WAVCIS:CSI16:2,2011-11-02T03:00:00Z,29.4012,-89.0355,10.0,21.4,11111222 
WAVCIS,ioos:station:WAVCIS:CSI16:2,2011-11-02T03:15:00Z,29.4012,-89.0355,10.0,21.445,11111222 
WAVCIS,ioos:station:WAVCIS:CSI16:2,2011-11-02T03:30:00Z,29.4012,-89.0355,10.0,21.474,11111222 
WAVCIS,ioos:station:WAVCIS:CSI16:2,2011-11-02T03:45:00Z,29.4012,-89.0355,10.0,21.503,11111222 
WAVCIS,ioos:station:WAVCIS:CSI16:2,2011-11-02T04:00:00Z,29.4012,-89.0355,10.0,21.547,11111222 
WAVCIS,ioos:station:WAVCIS:CSI16:2,2011-11-02T04:15:00Z,29.4012,-89.0355,10.0,21.554,11111222 
WAVCIS,ioos:station:WAVCIS:CSI16:2,2011-11-02T04:30:00Z,29.4012,-89.0355,10.0,21.605,11111222 
WAVCIS,ioos:station:WAVCIS:CSI16:2,2011-11-02T04:45:00Z,29.4012,-89.0355,10.0,21.65,11111222 
WAVCIS,ioos:station:WAVCIS:CSI16:2,2011-11-02T05:00:00Z,29.4012,-89.0355,10.0,21.662,11111222 
WAVCIS,ioos:station:WAVCIS:CSI16:2,2011-11-02T05:15:00Z,29.4012,-89.0355,10.0,21.66,11111222 
WAVCIS,ioos:station:WAVCIS:CSI16:2,2011-11-02T05:30:00Z,29.4012,-89.0355,10.0,21.661,11111222 
WAVCIS,ioos:station:WAVCIS:CSI16:2,2011-11-02T05:45:00Z,29.4012,-89.0355,10.0,21.661,11111222 
WAVCIS,ioos:station:WAVCIS:CSI16:2,2011-11-02T06:00:00Z,29.4012,-89.0355,10.0,21.7,11111222 
WAVCIS,ioos:station:WAVCIS:CSI16:2,2011-11-02T06:15:00Z,29.4012,-89.0355,10.0,21.724,11111222 
WAVCIS,ioos:station:WAVCIS:CSI16:2,2011-11-02T06:30:00Z,29.4012,-89.0355,10.0,21.776,11111222 
WAVCIS,ioos:station:WAVCIS:CSI16:2,2011-11-02T06:45:00Z,29.4012,-89.0355,10.0,21.777,11111222 
WAVCIS,ioos:station:WAVCIS:CSI16:2,2011-11-02T07:00:00Z,29.4012,-89.0355,10.0,21.782,11111222 
WAVCIS,ioos:station:WAVCIS:CSI16:2,2011-11-02T07:15:00Z,29.4012,-89.0355,10.0,21.778,11111222 
WAVCIS,ioos:station:WAVCIS:CSI16:2,2011-11-02T07:30:00Z,29.4012,-89.0355,10.0,21.774,11111222 
WAVCIS,ioos:station:WAVCIS:CSI16:2,2011-11-02T07:45:00Z,29.4012,-89.0355,10.0,21.775,11111222 
WAVCIS,ioos:station:WAVCIS:CSI16:2,2011-11-02T08:00:00Z,29.4012,-89.0355,10.0,21.788,11111222 
WAVCIS,ioos:station:WAVCIS:CSI16:2,2011-11-02T08:15:00Z,29.4012,-89.0355,10.0,21.782,11111222 
WAVCIS,ioos:station:WAVCIS:CSI16:2,2011-11-02T08:30:00Z,29.4012,-89.0355,10.0,21.789,11111222 
WAVCIS,ioos:station:WAVCIS:CSI16:2,2011-11-02T08:45:00Z,29.4012,-89.0355,10.0,21.811,11111222 
WAVCIS,ioos:station:WAVCIS:CSI16:2,2011-11-02T09:00:00Z,29.4012,-89.0355,10.0,21.784,11111222 
WAVCIS,ioos:station:WAVCIS:CSI16:2,2011-11-02T09:15:00Z,29.4012,-89.0355,10.0,21.788,11111222 
WAVCIS,ioos:station:WAVCIS:CSI16:2,2011-11-02T09:30:00Z,29.4012,-89.0355,10.0,21.763,11111222 
WAVCIS,ioos:station:WAVCIS:CSI16:2,2011-11-02T09:45:00Z,29.4012,-89.0355,10.0,21.724,11111222 
WAVCIS,ioos:station:WAVCIS:CSI16:2,2011-11-02T10:00:00Z,29.4012,-89.0355,10.0,21.721,11111222 
WAVCIS,ioos:station:WAVCIS:CSI16:2,2011-11-02T10:15:00Z,29.4012,-89.0355,10.0,21.678,11111222 
WAVCIS,ioos:station:WAVCIS:CSI16:2,2011-11-02T10:30:00Z,29.4012,-89.0355,10.0,21.689,11111222 
WAVCIS,ioos:station:WAVCIS:CSI16:2,2011-11-02T10:45:00Z,29.4012,-89.0355,10.0,21.68,11111222 
WAVCIS,ioos:station:WAVCIS:CSI16:2,2011-11-02T11:00:00Z,29.4012,-89.0355,10.0,21.687,11111222 
WAVCIS,ioos:station:WAVCIS:CSI16:2,2011-11-02T11:15:00Z,29.4012,-89.0355,10.0,21.622,11111222 
WAVCIS,ioos:station:WAVCIS:CSI16:2,2011-11-02T11:30:00Z,29.4012,-89.0355,10.0,21.561,11111222 
WAVCIS,ioos:station:WAVCIS:CSI16:2,2011-11-02T11:45:00Z,29.4012,-89.0355,10.0,21.587,11111222 
WAVCIS,ioos:station:WAVCIS:CSI16:2,2011-11-02T12:00:00Z,29.4012,-89.0355,10.0,21.595,11111222 
WAVCIS,ioos:station:WAVCIS:CSI16:2,2011-11-02T12:15:00Z,29.4012,-89.0355,10.0,21.529,11111222 
WAVCIS,ioos:station:WAVCIS:CSI16:2,2011-11-02T12:30:00Z,29.4012,-89.0355,10.0,21.55,11111222 
WAVCIS,ioos:station:WAVCIS:CSI16:2,2011-11-02T12:45:00Z,29.4012,-89.0355,10.0,21.42,11111222 
WAVCIS,ioos:station:WAVCIS:CSI16:2,2011-11-02T13:00:00Z,29.4012,-89.0355,10.0,21.382,11111222 
WAVCIS,ioos:station:WAVCIS:CSI16:2,2011-11-02T13:15:00Z,29.4012,-89.0355,10.0,21.308,11111222 
WAVCIS,ioos:station:WAVCIS:CSI16:2,2011-11-02T13:30:00Z,29.4012,-89.0355,10.0,21.244,11111222 
WAVCIS,ioos:station:WAVCIS:CSI16:2,2011-11-02T13:45:00Z,29.4012,-89.0355,10.0,21.238,11111222 
WAVCIS,ioos:station:WAVCIS:CSI16:2,2011-11-02T14:00:00Z,29.4012,-89.0355,10.0,21.24,11111222 
WAVCIS,ioos:station:WAVCIS:CSI16:2,2011-11-02T14:15:00Z,29.4012,-89.0355,10.0,21.232,11111222 
WAVCIS,ioos:station:WAVCIS:CSI16:2,2011-11-02T14:30:00Z,29.4012,-89.0355,10.0,21.209,11111222 
WAVCIS,ioos:station:WAVCIS:CSI16:2,2011-11-02T14:45:00Z,29.4012,-89.0355,10.0,21.198,11111222 
WAVCIS,ioos:station:WAVCIS:CSI16:2,2011-11-02T15:00:00Z,29.4012,-89.0355,10.0,21.16,11111222 
WAVCIS,ioos:station:WAVCIS:CSI16:2,2011-11-02T15:15:00Z,29.4012,-89.0355,10.0,21.142,11111222 
WAVCIS,ioos:station:WAVCIS:CSI16:2,2011-11-02T15:30:00Z,29.4012,-89.0355,10.0,21.153,11111222 
WAVCIS,ioos:station:WAVCIS:CSI16:2,2011-11-02T15:45:00Z,29.4012,-89.0355,10.0,21.139,11111222 
WAVCIS,ioos:station:WAVCIS:CSI16:2,2011-11-02T16:00:00Z,29.4012,-89.0355,10.0,21.131,11111222 
WAVCIS,ioos:station:WAVCIS:CSI16:2,2011-11-02T16:15:00Z,29.4012,-89.0355,10.0,21.135,11111222 
WAVCIS,ioos:station:WAVCIS:CSI16:2,2011-11-02T16:30:00Z,29.4012,-89.0355,10.0,21.126,11111222 
WAVCIS,ioos:station:WAVCIS:CSI16:2,2011-11-02T16:45:00Z,29.4012,-89.0355,10.0,21.071,11111222 
WAVCIS,ioos:station:WAVCIS:CSI16:2,2011-11-02T17:00:00Z,29.4012,-89.0355,10.0,21.045,11111222 
WAVCIS,ioos:station:WAVCIS:CSI16:2,2011-11-02T17:15:00Z,29.4012,-89.0355,10.0,21.015,11111222 
WAVCIS,ioos:station:WAVCIS:CSI16:2,2011-11-02T17:30:00Z,29.4012,-89.0355,10.0,21.01,11111222 
WAVCIS,ioos:station:WAVCIS:CSI16:2,2011-11-02T17:45:00Z,29.4012,-89.0355,10.0,20.997,11111222 
WAVCIS,ioos:station:WAVCIS:CSI16:2,2011-11-02T18:00:00Z,29.4012,-89.0355,10.0,20.983,11111222 
WAVCIS,ioos:station:WAVCIS:CSI16:2,2011-11-02T18:15:00Z,29.4012,-89.0355,10.0,20.973,11111222 
WAVCIS,ioos:station:WAVCIS:CSI16:2,2011-11-02T18:30:00Z,29.4012,-89.0355,10.0,20.953,11111222 
WAVCIS,ioos:station:WAVCIS:CSI16:2,2011-11-02T18:45:00Z,29.4012,-89.0355,10.0,20.94,11111222 
WAVCIS,ioos:station:WAVCIS:CSI16:2,2011-11-02T19:00:00Z,29.4012,-89.0355,10.0,20.929,11111222 
WAVCIS,ioos:station:WAVCIS:CSI16:2,2011-11-02T19:15:00Z,29.4012,-89.0355,10.0,20.707,11111222 
WAVCIS,ioos:station:WAVCIS:CSI16:2,2011-11-02T19:30:00Z,29.4012,-89.0355,10.0,20.361,11111222 
WAVCIS,ioos:station:WAVCIS:CSI16:2,2011-11-02T19:45:00Z,29.4012,-89.0355,10.0,20.2,11111222 
WAVCIS,ioos:station:WAVCIS:CSI16:2,2011-11-02T20:00:00Z,29.4012,-89.0355,10.0,20.154,11111222 
WAVCIS,ioos:station:WAVCIS:CSI16:2,2011-11-02T20:15:00Z,29.4012,-89.0355,10.0,20.258,11111222 
WAVCIS,ioos:station:WAVCIS:CSI16:2,2011-11-02T20:30:00Z,29.4012,-89.0355,10.0,20.219,11111222 
WAVCIS,ioos:station:WAVCIS:CSI16:2,2011-11-02T20:45:00Z,29.4012,-89.0355,10.0,20.225,11111222 
WAVCIS,ioos:station:WAVCIS:CSI16:2,2011-11-02T21:00:00Z,29.4012,-89.0355,10.0,20.258,11111222 
WAVCIS,ioos:station:WAVCIS:CSI16:2,2011-11-02T21:15:00Z,29.4012,-89.0355,10.0,20.222,11111222 
WAVCIS,ioos:station:WAVCIS:CSI16:2,2011-11-02T21:30:00Z,29.4012,-89.0355,10.0,19.999,11111222 
WAVCIS,ioos:station:WAVCIS:CSI16:2,2011-11-02T21:45:00Z,29.4012,-89.0355,10.0,19.863,11111222 
WAVCIS,ioos:station:WAVCIS:CSI16:2,2011-11-02T22:00:00Z,29.4012,-89.0355,10.0,19.99,11111222 
WAVCIS,ioos:station:WAVCIS:CSI16:2,2011-11-02T22:15:00Z,29.4012,-89.0355,10.0,19.979,11111222 
WAVCIS,ioos:station:WAVCIS:CSI16:2,2011-11-02T22:30:00Z,29.4012,-89.0355,10.0,20.25,11111222 
WAVCIS,ioos:station:WAVCIS:CSI16:2,2011-11-02T22:45:00Z,29.4012,-89.0355,10.0,20.461,11111222 
WAVCIS,ioos:station:WAVCIS:CSI16:2,2011-11-02T23:00:00Z,29.4012,-89.0355,10.0,20.626,11111222 
WAVCIS,ioos:station:WAVCIS:CSI16:2,2011-11-02T23:15:00Z,29.4012,-89.0355,10.0,20.788,11111222 
WAVCIS,ioos:station:WAVCIS:CSI16:2,2011-11-02T23:30:00Z,29.4012,-89.0355,10.0,20.992,11111222 
WAVCIS,ioos:station:WAVCIS:CSI16:2,2011-11-02T23:45:00Z,29.4012,-89.0355,10.0,21.011,11111222 
WAVCIS,ioos:station:WAVCIS:CSI16:2,2011-11-03T00:00:00Z,29.4012,-89.0355,10.0,21.063,11111222 
WAVCIS,ioos:station:WAVCIS:CSI16:2,2011-11-03T00:15:00Z,29.4012,-89.0355,10.0,21.09,11111222 
WAVCIS,ioos:station:WAVCIS:CSI16:2,2011-11-03T00:30:00Z,29.4012,-89.0355,10.0,21.124,11111222 
WAVCIS,ioos:station:WAVCIS:CSI16:2,2011-11-03T00:45:00Z,29.4012,-89.0355,10.0,21.169,11111222 
WAVCIS,ioos:station:WAVCIS:CSI16:2,2011-11-03T01:00:00Z,29.4012,-89.0355,10.0,21.199,11111222 
WAVCIS,ioos:station:WAVCIS:CSI16:2,2011-11-03T01:15:00Z,29.4012,-89.0355,10.0,21.217,11111222 
WAVCIS,ioos:station:WAVCIS:CSI16:2,2011-11-03T01:30:00Z,29.4012,-89.0355,10.0,21.23,11111222 
WAVCIS,ioos:station:WAVCIS:CSI16:2,2011-11-03T01:45:00Z,29.4012,-89.0355,10.0,21.247,11111222 
WAVCIS,ioos:station:WAVCIS:CSI16:2,2011-11-03T02:00:00Z,29.4012,-89.0355,10.0,21.252,11111222 
WAVCIS,ioos:station:WAVCIS:CSI16:2,2011-11-03T02:15:00Z,29.4012,-89.0355,10.0,21.255,11111222 
WAVCIS,ioos:station:WAVCIS:CSI16:2,2011-11-03T02:30:00Z,29.4012,-89.0355,10.0,21.259,11111222 
WAVCIS,ioos:station:WAVCIS:CSI16:2,2011-11-03T02:45:00Z,29.4012,-89.0355,10.0,21.272,11111222 
WAVCIS,ioos:station:WAVCIS:CSI16:2,2011-11-03T03:00:00Z,29.4012,-89.0355,10.0,21.287,11111222 
WAVCIS,ioos:station:WAVCIS:CSI16:2,2011-11-03T03:15:00Z,29.4012,-89.0355,10.0,21.304,11111222 
WAVCIS,ioos:station:WAVCIS:CSI16:2,2011-11-03T03:30:00Z,29.4012,-89.0355,10.0,21.319,11111222 
WAVCIS,ioos:station:WAVCIS:CSI16:2,2011-11-03T03:45:00Z,29.4012,-89.0355,10.0,21.324,11111222 
WAVCIS,ioos:station:WAVCIS:CSI16:2,2011-11-03T04:00:00Z,29.4012,-89.0355,10.0,21.331,11111222 
WAVCIS,ioos:station:WAVCIS:CSI16:2,2011-11-03T04:15:00Z,29.4012,-89.0355,10.0,21.334,11111222 
WAVCIS,ioos:station:WAVCIS:CSI16:2,2011-11-03T04:30:00Z,29.4012,-89.0355,10.0,21.338,11111222 
WAVCIS,ioos:station:WAVCIS:CSI16:2,2011-11-03T04:45:00Z,29.4012,-89.0355,10.0,21.342,11111222 
WAVCIS,ioos:station:WAVCIS:CSI16:2,2011-11-03T05:00:00Z,29.4012,-89.0355,10.0,21.347,11111222 
WAVCIS,ioos:station:WAVCIS:CSI16:2,2011-11-03T05:15:00Z,29.4012,-89.0355,10.0,21.368,11111222 
WAVCIS,ioos:station:WAVCIS:CSI16:2,2011-11-03T05:30:00Z,29.4012,-89.0355,10.0,21.388,11111222 
WAVCIS,ioos:station:WAVCIS:CSI16:2,2011-11-03T05:45:00Z,29.4012,-89.0355,10.0,21.42,11111222 
WAVCIS,ioos:station:WAVCIS:CSI16:2,2011-11-03T06:00:00Z,29.4012,-89.0355,10.0,21.436,11111222 
WAVCIS,ioos:station:WAVCIS:CSI16:2,2011-11-03T06:15:00Z,29.4012,-89.0355,10.0,21.443,11111222 
WAVCIS,ioos:station:WAVCIS:CSI16:2,2011-11-03T06:30:00Z,29.4012,-89.0355,10.0,21.46,11111222 
WAVCIS,ioos:station:WAVCIS:CSI16:2,2011-11-03T06:45:00Z,29.4012,-89.0355,10.0,21.464,11111222 
WAVCIS,ioos:station:WAVCIS:CSI16:2,2011-11-03T07:00:00Z,29.4012,-89.0355,10.0,21.468,11111222 
WAVCIS,ioos:station:WAVCIS:CSI16:2,2011-11-03T07:15:00Z,29.4012,-89.0355,10.0,21.472,11111222 
WAVCIS,ioos:station:WAVCIS:CSI16:2,2011-11-03T07:30:00Z,29.4012,-89.0355,10.0,21.486,11111222 
WAVCIS,ioos:station:WAVCIS:CSI16:2,2011-11-03T07:45:00Z,29.4012,-89.0355,10.0,21.488,11111222 
WAVCIS,ioos:station:WAVCIS:CSI16:2,2011-11-03T08:00:00Z,29.4012,-89.0355,10.0,21.488,11111222 
WAVCIS,ioos:station:WAVCIS:CSI16:2,2011-11-03T08:15:00Z,29.4012,-89.0355,10.0,21.496,11111222 
WAVCIS,ioos:station:WAVCIS:CSI16:2,2011-11-03T08:30:00Z,29.4012,-89.0355,10.0,21.497,11111222 
WAVCIS,ioos:station:WAVCIS:CSI16:2,2011-11-03T08:45:00Z,29.4012,-89.0355,10.0,21.497,11111222 
WAVCIS,ioos:station:WAVCIS:CSI16:2,2011-11-03T09:00:00Z,29.4012,-89.0355,10.0,21.508,11111222 
WAVCIS,ioos:station:WAVCIS:CSI16:2,2011-11-03T09:15:00Z,29.4012,-89.0355,10.0,21.524,11111222 
WAVCIS,ioos:station:WAVCIS:CSI16:2,2011-11-03T09:30:00Z,29.4012,-89.0355,10.0,21.516,11111222 
WAVCIS,ioos:station:WAVCIS:CSI16:2,2011-11-03T09:45:00Z,29.4012,-89.0355,10.0,21.539,11111222 
WAVCIS,ioos:station:WAVCIS:CSI16:2,2011-11-03T10:00:00Z,29.4012,-89.0355,10.0,21.538,11111222 
WAVCIS,ioos:station:WAVCIS:CSI16:2,2011-11-03T10:15:00Z,29.4012,-89.0355,10.0,21.543,11111222 
WAVCIS,ioos:station:WAVCIS:CSI16:2,2011-11-03T10:30:00Z,29.4012,-89.0355,10.0,21.55,11111222 
WAVCIS,ioos:station:WAVCIS:CSI16:2,2011-11-03T10:45:00Z,29.4012,-89.0355,10.0,21.54,11111222 
WAVCIS,ioos:station:WAVCIS:CSI16:2,2011-11-03T11:00:00Z,29.4012,-89.0355,10.0,21.531,11111222 
WAVCIS,ioos:station:WAVCIS:CSI16:2,2011-11-03T11:15:00Z,29.4012,-89.0355,10.0,21.533,11111222 
WAVCIS,ioos:station:WAVCIS:CSI16:2,2011-11-03T11:30:00Z,29.4012,-89.0355,10.0,21.524,11111222 
WAVCIS,ioos:station:WAVCIS:CSI16:2,2011-11-03T11:45:00Z,29.4012,-89.0355,10.0,21.515,11111222 
WAVCIS,ioos:station:WAVCIS:CSI16:2,2011-11-03T12:00:00Z,29.4012,-89.0355,10.0,21.52,11111222 
WAVCIS,ioos:station:WAVCIS:CSI16:2,2011-11-03T12:15:00Z,29.4012,-89.0355,10.0,21.524,11111222 
WAVCIS,ioos:station:WAVCIS:CSI16:2,2011-11-03T12:30:00Z,29.4012,-89.0355,10.0,21.53,11111222 
WAVCIS,ioos:station:WAVCIS:CSI16:2,2011-11-03T12:45:00Z,29.4012,-89.0355,10.0,21.537,11111222 
WAVCIS,ioos:station:WAVCIS:CSI16:2,2011-11-03T13:00:00Z,29.4012,-89.0355,10.0,21.545,11111222 
WAVCIS,ioos:station:WAVCIS:CSI16:2,2011-11-03T13:15:00Z,29.4012,-89.0355,10.0,21.543,11111222 
WAVCIS,ioos:station:WAVCIS:CSI16:2,2011-11-03T13:30:00Z,29.4012,-89.0355,10.0,21.544,11111222 
WAVCIS,ioos:station:WAVCIS:CSI16:2,2011-11-03T13:45:00Z,29.4012,-89.0355,10.0,21.55,11111222 
WAVCIS,ioos:station:WAVCIS:CSI16:2,2011-11-03T14:00:00Z,29.4012,-89.0355,10.0,21.548,11111222 
WAVCIS,ioos:station:WAVCIS:CSI16:2,2011-11-03T14:15:00Z,29.4012,-89.0355,10.0,21.55,11111222 
WAVCIS,ioos:station:WAVCIS:CSI16:2,2011-11-03T14:30:00Z,29.4012,-89.0355,10.0,21.551,11111222 
WAVCIS,ioos:station:WAVCIS:CSI16:2,2011-11-03T14:45:00Z,29.4012,-89.0355,10.0,21.553,11111222 